TimeAKDT,TemperatureF,Dew PointF,Humidity,Sea Level PressureIn,VisibilityMPH,Wind Direction,Wind SpeedMPH,Gust SpeedMPH,PrecipitationIn,Events,Conditions,WindDirDegrees,DateUTC
12:01 AM,26.1,24.1,92,30.25,10.0,ESE,9.2,-,N/A,,Unknown,110,2013-05-22 08:01:00
1:01 AM,25.0,23.0,92,30.24,10.0,ESE,8.1,-,N/A,,Unknown,110,2013-05-22 09:01:00
2:01 AM,23.0,21.0,92,30.24,10.0,SE,6.9,-,N/A,,Unknown,140,2013-05-22 10:01:00
3:01 AM,21.9,19.9,92,30.23,10.0,SE,9.2,-,N/A,,Unknown,130,2013-05-22 11:01:00
4:01 AM,24.1,19.9,84,30.23,10.0,South,6.9,-,N/A,,Unknown,170,2013-05-22 12:01:00
5:01 AM,25.0,21.0,85,30.23,10.0,SSE,4.6,-,N/A,,Unknown,150,2013-05-22 13:01:00
6:01 AM,28.0,21.9,78,30.23,10.0,South,5.8,-,N/A,,Unknown,170,2013-05-22 14:01:00
7:01 AM,30.0,23.0,75,30.24,10.0,ESE,5.8,-,N/A,,Unknown,120,2013-05-22 15:01:00
8:01 AM,27.0,21.9,81,30.24,10.0,East,6.9,-,N/A,,Unknown,100,2013-05-22 16:01:00
9:01 AM,32.0,26.1,79,30.24,10.0,ESE,5.8,-,N/A,,Unknown,120,2013-05-22 17:01:00
10:01 AM,28.0,25.0,88,30.24,10.0,East,5.8,-,N/A,,Unknown,90,2013-05-22 18:01:00
11:01 AM,33.1,28.0,82,30.24,10.0,East,5.8,-,N/A,,Unknown,90,2013-05-22 19:01:00
12:01 PM,33.1,28.0,82,30.23,10.0,East,8.1,-,N/A,,Unknown,80,2013-05-22 20:01:00
1:01 PM,34.0,28.9,82,30.23,10.0,East,10.4,-,N/A,,Unknown,90,2013-05-22 21:01:00
2:01 PM,35.1,30.0,82,30.22,10.0,East,10.4,-,N/A,,Unknown,100,2013-05-22 22:01:00
3:01 PM,35.1,30.9,85,30.22,10.0,East,8.1,-,N/A,,Unknown,90,2013-05-22 23:01:00
4:01 PM,36.0,30.9,82,30.22,10.0,East,8.1,-,N/A,,Unknown,80,2013-05-23 00:01:00
5:01 PM,36.0,30.9,82,30.21,10.0,East,9.2,-,N/A,,Unknown,80,2013-05-23 01:01:00
6:01 PM,37.0,30.9,79,30.21,10.0,East,9.2,-,N/A,,Unknown,80,2013-05-23 02:01:00
7:01 PM,37.0,30.9,79,30.20,10.0,ENE,8.1,-,N/A,,Unknown,60,2013-05-23 03:01:00
8:01 PM,35.1,30.0,82,30.19,10.0,ENE,9.2,-,N/A,,Unknown,70,2013-05-23 04:01:00
9:01 PM,35.1,30.0,82,30.19,10.0,ENE,8.1,-,N/A,,Unknown,70,2013-05-23 05:01:00
10:01 PM,33.1,28.0,82,30.18,10.0,ENE,9.2,-,N/A,,Unknown,70,2013-05-23 06:01:00
11:01 PM,30.0,27.0,88,30.18,10.0,ENE,9.2,-,N/A,,Unknown,70,2013-05-23 07:01:00